Weather History for Klamath Falls, OR

Change the Weather History Date:

Friday, August 22, 2014

  Actual Average Record
Temperature  
Mean Temperature 59 °F 64 °F  
Max Temperature 77 °F 82 °F 92 °F (1982)
Min Temperature 40 °F 46 °F 34 °F (1968)
Degree Days  
Heating Degree Days 6 2  
Month to date heating degree days 17 37  
Since 1 June heating degree days 202 304  
Since 1 July heating degree days 27 87  
Cooling Degree Days 0 1  
Month to date cooling degree days 83 54  
Year to date cooling degree days 311 148  
Since 1 June cooling degree days 311 147  
Growing Degree Days 8 (Base 50)    
Moisture  
Dew Point 38 °F    
Average Humidity 46    
Maximum Humidity 79    
Minimum Humidity 21    
Precipitation  
Precipitation 0.00 in 0.01 in 1.04 in (1948)
Month to date precipitation 0.92 0.26  
Year to date precipitation 7.51 9.57  
Sea Level Pressure  
Sea Level Pressure 29.94 in    
Wind  
Wind Speed 8 mph (NNW)    
Max Wind Speed 20 mph    
Max Gust Speed 24 mph    
Visibility 10 miles    
Events      
T = Trace of Precipitation, MM = Missing Value Source: NWS Daily Summary

Daily Weather History Graph

Daily Weather History Graph

Search for Another Location

Airport:

Trip Planner

Search our weather history database for the weather conditions in past years. The results will help you decide how hot, cold, wet, or windy it might be!

Date:

Astronomy

Aug. 22, 2014 Rise Set
Actual Time 6:21 AM PDT 7:56 PM PDT
Civil Twilight 5:52 AM PDT 8:26 PM PDT
Nautical Twilight 5:16 AM PDT 9:01 PM PDT
Astronomical Twilight 4:38 AM PDT 9:39 PM PDT
Moon 3:48 AM PDT (8/22) 6:09 PM PDT (8/22)
Length of Visible Light 14h 33m
Length of Day
13h 34m
Waning Crescent, 7% of the Moon is Illuminated
Aug 22
Waning Crescent
Aug 25
New
Sep 2
First Quarter
Sep 8
Full
Sep 15
Last Quarter

Hourly Weather History & Observations

Time (PDT) Temp. Windchill Dew Point Humidity Pressure Visibility Wind Dir Wind Speed Gust Speed Precip Events Conditions
12:53 AM 59.0 °F - 37.0 °F 44% 29.91 in 10.0 mi SW 11.5 mph - N/A   Clear
2:53 AM 55.9 °F - 37.9 °F 51% 29.91 in 10.0 mi WSW 10.4 mph - N/A   Clear
3:53 AM 46.9 °F - 37.0 °F 68% 29.93 in 10.0 mi NNE 3.5 mph - N/A   Clear
4:53 AM 48.0 °F - 37.9 °F 68% 29.93 in 10.0 mi WNW 3.5 mph - N/A   Clear
5:53 AM 41.0 °F 38.0 °F 36.0 °F 82% 29.94 in 10.0 mi ESE 4.6 mph - N/A   Clear
6:53 AM 41.0 °F 37.1 °F 36.0 °F 82% 29.96 in 10.0 mi North 5.8 mph - N/A   Clear
7:53 AM 50.0 °F - 42.1 °F 74% 29.95 in 10.0 mi SSE 3.5 mph - N/A   Clear
8:53 AM 60.1 °F - 42.1 °F 51% 29.94 in 10.0 mi Calm Calm - N/A   Clear
9:53 AM 64.0 °F - 43.0 °F 46% 29.94 in 10.0 mi Variable 6.9 mph - N/A   Clear
10:53 AM 64.9 °F - 42.1 °F 43% 29.94 in 10.0 mi North - - N/A   Clear
11:53 AM 69.1 °F - 35.1 °F 29% 29.94 in 10.0 mi North - - N/A   Clear
12:53 PM 70.0 °F - 35.1 °F 28% 29.91 in 10.0 mi Variable 3.5 mph - N/A   Clear
2:53 PM 75.0 °F - 35.1 °F 23% 29.88 in 10.0 mi NNW 11.5 mph 18.4 mph N/A   Clear
3:53 PM 75.9 °F - 33.1 °F 21% 29.90 in 10.0 mi NNW 15.0 mph 21.9 mph N/A   Clear
4:53 PM 75.9 °F - 34.0 °F 22% 29.90 in 10.0 mi NNW 12.7 mph - N/A   Clear
5:53 PM 75.0 °F - 36.0 °F 24% 29.92 in 10.0 mi NW 16.1 mph - N/A   Clear
6:53 PM 72.0 °F - 37.9 °F 29% 29.94 in 10.0 mi NNW 16.1 mph - N/A   Clear
7:53 PM 69.1 °F - 39.9 °F 35% 29.94 in 10.0 mi NNW 13.8 mph - N/A   Clear
8:53 PM 64.9 °F - 43.0 °F 45% 29.95 in 10.0 mi NW 11.5 mph - N/A   Clear
9:53 PM 61.0 °F - 43.0 °F 52% 29.98 in 10.0 mi West 6.9 mph - N/A   Clear
10:53 PM 62.1 °F - 39.9 °F 44% 29.98 in 10.0 mi NNE 5.8 mph - N/A   Clear
11:53 PM 57.0 °F - 39.0 °F 51% 30.00 in 10.0 mi NNE 6.9 mph - N/A   Clear